Location: Arrington
(35.8681°N, 86.7092°W)
Time: 23:57:50
(UTC+00:00)

SeaSat 1 - Pass Details

Date: 23 November 2019
Orbit: 745 x 747 km, 108.0° (Epoch: 09 December)

Event Time Altitude Azimuth Distance (km) Brightness Sun altitude
Exits shadow 00:49:48 24° 173° (S) 1,525 4.0 -26.9°
Maximum altitude 00:52:44 62° 247° (WSW) 840 2.8 -27.5°
Drops below altitude 10° 00:57:37 10° 328° (NNW) 2,266 5.2 -28.5°
Sets 00:59:55 0° 332° (NNW) 3,194 6.0 -29.0°
